Location: Bercimuel
(41.3983°N, 3.5711°W)
Time: 20:00:33
(UTC+00:00)

USA 186 - Pass Details

Date: 15 May 2026
Orbit: 338 x 359 km, 97.0° (Epoch: 19 May)

Event Time Altitude Azimuth Distance (km) Brightness Sun altitude
Exits shadow 21:12:57 68° 164° (SSE) 366 1.2 -16.9°
Maximum altitude 21:13:15 88° 80° (E) 341 1.2 -16.9°
Drops below altitude 10° 21:16:00 10° 349° (N) 1,290 5.1 -17.3°
Sets 21:17:56 0° 349° (N) 2,136 6.3 -17.5°
